Hourly Data Report for October 02, 2017

All times are specified in Local Standard Time (LST). Add 1 hour to adjust for Daylight Saving Time where and when it is observed.

HOPE A
BRITISH COLUMBIA

49°22'06.000" N
121°29'53.000" W
39.00 m
1113542
71187
YHE

Related Data

No related data is available for this station

Download Data

Hourly Data (October 2017)
Hourly Data Report for October 2, 2017
Temp Definition
°C
Dew Point Temp Definition
°C
Rel Hum Definition
%
Wind Dir Definition
10's deg

Wind Spd Definition
km/h
Visibility Definition
km
Stn Press Definition
kPa
Hmdx Definition


Wind Chill Definition


Weather Definition


TIME
00:00 Legend Double Dagger 9.4 6.7 83 10 11 16.1 101.68     LegendNANA
01:00 Legend Double Dagger 9.4 7.2 86 9 13 16.1 101.68     LegendNANA
02:00 Legend Double Dagger 9.2 7.3 88 9 13 16.1 101.68     LegendNANA
03:00 Legend Double Dagger 8.9 7.2 89 10 17 16.1 101.69     LegendNANA
04:00 Legend Double Dagger 8.7 7.2 90 11 18 16.1 101.70     LegendNANA
05:00 Legend Double Dagger 8.8 7.1 89 11 17 16.1 101.74     LegendNANA
06:00 Legend Double Dagger 8.7 7.2 90 11 13 16.1 101.76     LegendNANA
07:00 Legend Double Dagger 9.2 7.2 87 10 9 16.1 101.78     LegendNANA
08:00 Legend Double Dagger 10.4 7.0 80 7 5 16.1 101.80     LegendNANA
09:00 Legend Double Dagger 12.1 5.8 65 10 9 16.1 101.83     LegendNANA
10:00 Legend Double Dagger 15.3 2.8 43 13 13 16.1 101.83     LegendNANA
11:00 Legend Double Dagger 15.4 1.7 39 13 15 16.1 101.84     LegendNANA
12:00 Legend Double Dagger 16.7 1.3 35 LegendMM 5 16.1 101.83     LegendNANA
13:00 Legend Double Dagger 17.2 1.6 35 10 9 16.1 101.84     LegendNANA
14:00 Legend Double Dagger 18.7 0.9 30 LegendMM 11 16.1 101.79     LegendNANA
15:00 Legend Double Dagger 19.2 0.8 29 LegendMM 8 16.1 101.77     LegendNANA
16:00 Legend Double Dagger 18.8 0.8 30 11 9 16.1 101.77     LegendNANA
17:00 Legend Double Dagger 16.7 -0.7 30 10 11 16.1 101.83     LegendNANA
18:00 Legend Double Dagger 15.7 -0.3 33 13 17 16.1 101.91     LegendNANA
19:00 Legend Double Dagger 14.5 0.2 37 10 11 16.1 102.02     LegendNANA
20:00 Legend Double Dagger 14.3 -0.5 36 11 21 16.1 102.11     LegendNANA
21:00 Legend Double Dagger 12.5 -0.2 42 12 17 16.1 102.17     LegendNANA
22:00 Legend Double Dagger 10.9 2.9 58 9 8 16.1 102.24     LegendNANA
23:00 Legend Double Dagger 10.1 3.3 62 6 5 16.1 102.28     LegendNANA

Notes on Data Quality.

Legend

  • E = Estimated
  • M = Missing
  • NA = Not Available
  • ‡ = Partner data that is not subject to review by the National Climate Archives
Date modified: